| time (UTC) | temp F | wind direction | speed knots | gust knots | rain 1hr in | rain 24hr in | rain mn in | humidity % | barometer mb |
| 20260507060048 | 45 | 275 | 0.9 | 4.3 | 0.00 | 0.02 | 0.00 | 43 | 1014.6 |
| 20260507054537 | 45 | 310 | 0.0 | 1.7 | 0.00 | 0.03 | 0.00 | 40 | 1014.7 |
| 20260507053036 | 46 | 311 | 0.0 | 0.0 | 0.00 | 0.03 | 0.00 | 40 | 1014.5 |
| 20260507051540 | 46 | 317 | 0.0 | 0.9 | 0.00 | 0.03 | 0.00 | 40 | 1014.6 |
| 20260507050039 | 46 | 314 | 0.0 | 3.5 | 0.00 | 0.03 | 0.00 | 41 | 1014.5 |
| 20260507044531 | 47 | 326 | 0.9 | 1.7 | 0.00 | 0.05 | 0.00 | 40 | 1014.5 |
| 20260507043029 | 47 | 340 | 0.0 | 3.5 | 0.00 | 0.05 | 0.00 | 38 | 1014.6 |
| 20260507041530 | 47 | 257 | 0.0 | 0.0 | 0.00 | 0.05 | 0.00 | 35 | 1014.5 |
| 20260507040028 | 47 | 255 | 0.0 | 0.9 | 0.00 | 0.05 | 0.00 | 34 | 1014.5 |
| 20260507034534 | 47 | 243 | 0.0 | 0.9 | 0.00 | 0.07 | 0.05 | 36 | 1014.5 |
| 20260507033019 | 47 | 243 | 0.0 | 0.9 | 0.00 | 0.07 | 0.05 | 38 | 1014.6 |
| 20260507031514 | 48 | 243 | 0.0 | 1.7 | 0.00 | 0.07 | 0.05 | 39 | 1014.6 |
| 20260507030017 | 48 | 244 | 0.0 | 1.7 | 0.00 | 0.07 | 0.05 | 42 | 1014.5 |
| 20260507024505 | 49 | 244 | 0.0 | 1.7 | 0.00 | 0.09 | 0.05 | 46 | 1014.5 |
| 20260507023001 | 49 | 244 | 0.0 | 1.7 | 0.00 | 0.09 | 0.05 | 49 | 1014.5 |
| 20260507021600 | 49 | 257 | 0.0 | 0.9 | 0.00 | 0.09 | 0.05 | 49 | 1014.6 |
| 20260507020054 | 49 | 257 | 0.0 | 1.7 | 0.00 | 0.09 | 0.05 | 45 | 1014.4 |
| 20260507014550 | 50 | 257 | 0.0 | 1.7 | 0.00 | 0.13 | 0.05 | 47 | 1014.4 |
| 20260507013043 | 50 | 257 | 0.0 | 1.7 | 0.00 | 0.13 | 0.05 | 50 | 1014.3 |
| 20260507011544 | 51 | 257 | 0.0 | 0.9 | 0.00 | 0.13 | 0.05 | 55 | 1014.1 |
| 20260507010036 | 51 | 257 | 0.0 | 0.9 | 0.00 | 0.13 | 0.05 | 57 | 1013.7 |
| 20260507004530 | 52 | 257 | 0.0 | 1.7 | 0.00 | 0.17 | 0.05 | 57 | 1013.6 |
| 20260507003026 | 52 | 257 | 0.0 | 1.7 | 0.00 | 0.17 | 0.05 | 56 | 1013.4 |
| 20260507001523 | 53 | 226 | 0.0 | 3.5 | 0.00 | 0.17 | 0.05 | 55 | 1013.5 |
| 20260507000018 | 54 | 281 | 2.6 | 5.2 | 0.00 | 0.17 | 0.05 | 53 | 1013.4 |
| 20260506234516 | 55 | 295 | 2.6 | 6.1 | 0.00 | 0.20 | 0.05 | 52 | 1013.3 |
| 20260506233015 | 55 | 232 | 3.5 | 6.1 | 0.00 | 0.20 | 0.05 | 52 | 1013.3 |
| 20260506231512 | 55 | 223 | 1.7 | 5.2 | 0.00 | 0.20 | 0.05 | 52 | 1013.4 |
| 20260506230010 | 55 | 24 | 4.3 | 6.1 | 0.00 | 0.20 | 0.05 | 55 | 1013.5 |
| 20260506224501 | 55 | 245 | 1.7 | 5.2 | 0.00 | 0.22 | 0.05 | 53 | 1013.6 |
| 20260506223101 | 55 | 238 | 4.3 | 7.8 | 0.00 | 0.22 | 0.05 | 53 | 1013.9 |
| 20260506221553 | 54 | 239 | 3.5 | 7.0 | 0.00 | 0.22 | 0.05 | 53 | 1013.9 |
| 20260506220051 | 54 | 275 | 0.9 | 6.1 | 0.00 | 0.22 | 0.05 | 53 | 1013.8 |
| 20260506214544 | 54 | 314 | 2.6 | 7.0 | 0.00 | 0.24 | 0.05 | 54 | 1013.6 |
| 20260506213040 | 54 | 351 | 1.7 | 7.0 | 0.00 | 0.24 | 0.05 | 54 | 1013.7 |
| 20260506211546 | 54 | 350 | 3.5 | 6.1 | 0.00 | 0.24 | 0.05 | 52 | 1013.5 |
| 20260506210035 | 54 | 18 | 4.3 | 7.8 | 0.00 | 0.24 | 0.05 | 52 | 1013.4 |
| 20260506204529 | 54 | 284 | 3.5 | 7.0 | 0.00 | 0.26 | 0.05 | 54 | 1013.3 |
| 20260506203027 | 54 | 351 | 4.3 | 7.0 | 0.00 | 0.26 | 0.05 | 53 | 1013.4 |
| 20260506201525 | 54 | 15 | 3.5 | 7.0 | 0.00 | 0.26 | 0.05 | 53 | 1013.5 |
| 20260506200017 | 54 | 9 | 5.2 | 9.6 | 0.00 | 0.26 | 0.05 | 52 | 1013.6 |
| 20260506194511 | 54 | 324 | 3.5 | 8.7 | 0.00 | 0.34 | 0.05 | 51 | 1013.7 |
| 20260506193008 | 54 | 314 | 1.7 | 7.8 | 0.00 | 0.34 | 0.05 | 53 | 1013.6 |
| 20260506191502 | 54 | 265 | 1.7 | 6.1 | 0.00 | 0.34 | 0.05 | 53 | 1013.5 |
| 20260506190059 | 54 | 254 | 2.6 | 7.0 | 0.00 | 0.34 | 0.05 | 52 | 1013.4 |
| 20260506184554 | 53 | 309 | 0.0 | 7.0 | 0.00 | 0.34 | 0.05 | 52 | 1013.6 |
| 20260506183049 | 53 | 13 | 1.7 | 7.0 | 0.00 | 0.34 | 0.05 | 53 | 1013.6 |
| 20260506181545 | 53 | 260 | 1.7 | 6.1 | 0.00 | 0.34 | 0.05 | 53 | 1013.7 |
| 20260506180041 | 53 | 311 | 4.3 | 7.0 | 0.00 | 0.34 | 0.05 | 53 | 1013.6 |
| 20260506174538 | 54 | 321 | 3.5 | 5.2 | 0.00 | 0.34 | 0.05 | 53 | 1013.5 |
| 20260506173032 | 54 | 292 | 3.5 | 7.0 | 0.00 | 0.34 | 0.05 | 53 | 1013.7 |
| 20260506171530 | 54 | 351 | 4.3 | 7.0 | 0.00 | 0.34 | 0.05 | 53 | 1013.6 |
| 20260506170023 | 54 | 286 | 2.6 | 7.8 | 0.00 | 0.34 | 0.05 | 53 | 1013.5 |
| 20260506164521 | 53 | 285 | 0.9 | 5.2 | 0.00 | 0.35 | 0.05 | 53 | 1013.4 |
| 20260506163014 | 53 | 330 | 4.3 | 9.6 | 0.00 | 0.35 | 0.05 | 54 | 1013.9 |
| 20260506161510 | 53 | 317 | 6.1 | 8.7 | 0.00 | 0.35 | 0.05 | 53 | 1013.8 |
| 20260506160006 | 53 | 16 | 3.5 | 8.7 | 0.00 | 0.35 | 0.05 | 53 | 1013.6 |
| 20260506154500 | 52 | 5 | 0.0 | 6.1 | 0.00 | 0.35 | 0.05 | 50 | 1013.2 |
| 20260506153056 | 52 | 109 | 0.9 | 7.8 | 0.00 | 0.35 | 0.05 | 51 | 1013.6 |
| 20260506151552 | 52 | 13 | 2.6 | 7.8 | 0.00 | 0.35 | 0.05 | 49 | 1013.5 |
| 20260506150058 | 51 | 15 | 3.5 | 8.7 | 0.00 | 0.35 | 0.05 | 50 | 1013.3 |
| 20260506144600 | 50 | 9 | 3.5 | 9.6 | 0.00 | 0.35 | 0.05 | 48 | 1013.2 |
| 20260506143049 | 50 | 15 | 4.3 | 7.0 | 0.00 | 0.35 | 0.05 | 40 | 1013.1 |
| 20260506141535 | 49 | 346 | 5.2 | 7.0 | 0.00 | 0.35 | 0.05 | 34 | 1012.7 |
| 20260506140046 | 49 | 9 | 2.6 | 7.0 | 0.00 | 0.35 | 0.05 | 18 | 1012.8 |
| 20260506134532 | 45 | 269 | 2.6 | 7.0 | 0.00 | 0.35 | 0.05 | 1 | 1012.8 |
| 20260506133022 | 46 | 313 | 4.3 | 7.0 | 0.00 | 0.35 | 0.05 | 1 | 1012.7 |
| 20260506131519 | 46 | 11 | 2.6 | 7.8 | 0.00 | 0.35 | 0.05 | 1 | 1012.6 |
| 20260506130013 | 46 | 342 | 3.5 | 6.1 | 0.00 | 0.35 | 0.05 | 1 | 1012.5 |
| 20260506124509 | 45 | 22 | 0.0 | 4.3 | 0.00 | 0.35 | 0.05 | 1 | 1012.3 |
| 20260506123004 | 45 | 272 | 0.9 | 3.5 | 0.00 | 0.35 | 0.05 | 1 | 1012.1 |
| 20260506121602 | 45 | 230 | 0.9 | 2.6 | 0.00 | 0.35 | 0.05 | 1 | 1011.9 |
| 20260506114552 | 44 | 242 | 0.0 | 2.6 | 0.00 | 0.35 | 0.05 | 1 | 1011.4 |
| 20260506113051 | 44 | 269 | 1.7 | 2.6 | 0.00 | 0.35 | 0.05 | 1 | 1011.1 |
| 20260506111542 | 43 | 254 | 0.0 | 1.7 | 0.01 | 0.35 | 0.05 | 1 | 1011.0 |
| 20260506110042 | 43 | 290 | 0.0 | 1.7 | 0.01 | 0.35 | 0.05 | 1 | 1010.4 |
| 20260506104533 | 43 | 355 | 0.0 | 0.9 | 0.01 | 0.35 | 0.05 | 1 | 1010.3 |
| 20260506103029 | 43 | 355 | 0.0 | 1.7 | 0.01 | 0.35 | 0.05 | 1 | 1010.1 |
| 20260506101529 | 43 | 355 | 0.0 | 0.9 | 0.00 | 0.34 | 0.04 | 1 | 1010.2 |
| 20260506100021 | 43 | 355 | 0.0 | 3.5 | 0.00 | 0.34 | 0.04 | 1 | 1010.1 |
| 20260506094516 | 43 | 360 | 0.9 | 3.5 | 0.00 | 0.35 | 0.04 | 1 | 1009.6 |
| 20260506093011 | 43 | 5 | 0.9 | 2.6 | 0.00 | 0.35 | 0.04 | 1 | 1009.9 |
| 20260506091506 | 43 | 5 | 0.0 | 1.7 | 0.00 | 0.35 | 0.04 | 1 | 1009.2 |
| 20260506090004 | 43 | 9 | 0.0 | 0.0 | 0.00 | 0.35 | 0.04 | 1 | 1009.5 |
| 20260506084601 | 43 | 5 | 0.0 | 1.7 | 0.00 | 0.43 | 0.04 | 1 | 1009.8 |
| 20260506083058 | 43 | 9 | 0.9 | 4.3 | 0.00 | 0.43 | 0.04 | 1 | 1009.3 |
| 20260506081603 | 42 | 248 | 0.0 | 1.7 | 0.00 | 0.43 | 0.04 | 1 | 1009.0 |
| 20260506073038 | 43 | 14 | 0.9 | 3.5 | 0.00 | 0.47 | 0.04 | 1 | 1009.7 |
| 20260506071532 | 42 | 17 | 0.0 | 0.0 | 0.01 | 0.47 | 0.04 | 1 | 1009.4 |
| 20260506061514 | 43 | 17 | 0.0 | 0.9 | 0.01 | 0.48 | 0.03 | 1 | 1009.6 |